Year,Month,Day,Hour,Minute,Value (Times are PST for temperature in C)
2018,06,11,00,00,6.60
2018,06,11,00,01,6.60
2018,06,11,00,02,6.60
2018,06,11,00,03,6.70
2018,06,11,00,04,6.70
2018,06,11,00,05,6.70
2018,06,11,00,06,6.70
2018,06,11,00,07,6.70
2018,06,11,00,08,6.70
2018,06,11,00,09,6.70
2018,06,11,00,10,6.70
2018,06,11,00,11,6.70
2018,06,11,00,12,6.70
2018,06,11,00,13,6.70
2018,06,11,00,14,6.70
2018,06,11,00,15,6.70
2018,06,11,00,16,6.70
2018,06,11,00,17,6.70
2018,06,11,00,18,6.60
2018,06,11,00,19,6.60
2018,06,11,00,20,6.60
2018,06,11,00,21,6.60
2018,06,11,00,22,6.60
2018,06,11,00,23,6.60
2018,06,11,00,24,6.60
2018,06,11,00,25,6.60
2018,06,11,00,26,6.60
2018,06,11,00,27,6.60
2018,06,11,00,28,6.60
2018,06,11,00,29,6.60
2018,06,11,00,30,6.60
2018,06,11,00,31,6.60
2018,06,11,00,32,6.60
2018,06,11,00,33,6.60
2018,06,11,00,34,6.60
2018,06,11,00,35,6.60
2018,06,11,00,36,6.60
2018,06,11,00,37,6.60
2018,06,11,00,38,6.60
2018,06,11,00,39,6.60
2018,06,11,00,40,6.60
2018,06,11,00,41,6.60
2018,06,11,00,42,6.60
2018,06,11,00,43,6.60
2018,06,11,00,44,6.60
2018,06,11,00,45,6.60
2018,06,11,00,46,6.60
2018,06,11,00,47,6.60
2018,06,11,00,48,6.60
2018,06,11,00,49,6.60
2018,06,11,00,50,6.60
2018,06,11,00,51,6.60
2018,06,11,00,52,6.60
2018,06,11,00,53,6.60
2018,06,11,00,54,6.60
2018,06,11,00,55,6.60
2018,06,11,00,56,6.60
2018,06,11,00,57,6.60
2018,06,11,00,58,6.60
2018,06,11,00,59,6.60
2018,06,11,01,00,6.60
2018,06,11,01,01,6.50
2018,06,11,01,02,6.50
2018,06,11,01,03,6.50
2018,06,11,01,04,6.50
2018,06,11,01,05,6.40
2018,06,11,01,06,6.40
2018,06,11,01,07,6.40
2018,06,11,01,08,6.40
2018,06,11,01,09,6.40
2018,06,11,01,10,6.40
2018,06,11,01,11,6.30
2018,06,11,01,12,6.30
2018,06,11,01,13,6.30
2018,06,11,01,14,6.30
2018,06,11,01,15,6.30
2018,06,11,01,16,6.30
2018,06,11,01,17,6.30
2018,06,11,01,18,6.20
2018,06,11,01,19,6.20
2018,06,11,01,20,6.20
2018,06,11,01,21,6.20
2018,06,11,01,22,6.20
2018,06,11,01,23,6.20
2018,06,11,01,24,6.20
2018,06,11,01,25,6.10
2018,06,11,01,26,6.10
2018,06,11,01,27,6.10
2018,06,11,01,28,6.10
2018,06,11,01,29,6.10
2018,06,11,01,30,6.10
2018,06,11,01,31,6.10
2018,06,11,01,32,6.00
2018,06,11,01,33,6.00
2018,06,11,01,34,6.00
2018,06,11,01,35,6.00
2018,06,11,01,36,6.00
2018,06,11,01,37,5.90
2018,06,11,01,38,5.90
2018,06,11,01,39,5.90
2018,06,11,01,40,5.90
2018,06,11,01,41,5.90
2018,06,11,01,42,5.80
2018,06,11,01,43,5.80
2018,06,11,01,44,5.80
2018,06,11,01,45,5.80
2018,06,11,01,46,5.80
2018,06,11,01,47,5.70
2018,06,11,01,48,5.70
2018,06,11,01,49,5.70
2018,06,11,01,50,5.70
2018,06,11,01,51,5.70
2018,06,11,01,52,5.60
2018,06,11,01,53,5.60
2018,06,11,01,54,5.60
2018,06,11,01,55,5.60
2018,06,11,01,56,5.60
2018,06,11,01,57,5.60
2018,06,11,01,58,5.60
2018,06,11,01,59,5.50
2018,06,11,02,00,5.50
2018,06,11,02,01,5.50
2018,06,11,02,02,5.50
2018,06,11,02,03,5.50
2018,06,11,02,04,5.50
2018,06,11,02,05,5.50
2018,06,11,02,06,5.40
2018,06,11,02,07,5.40
2018,06,11,02,08,5.40
2018,06,11,02,09,5.40
2018,06,11,02,10,5.40
2018,06,11,02,11,5.40
2018,06,11,02,12,5.30
2018,06,11,02,13,5.30
2018,06,11,02,14,5.30
2018,06,11,02,15,5.30
2018,06,11,02,16,5.30
2018,06,11,02,17,5.30
2018,06,11,02,18,5.30
2018,06,11,02,19,5.30
2018,06,11,02,20,5.30
2018,06,11,02,21,5.30
2018,06,11,02,22,5.30
2018,06,11,02,23,5.20
2018,06,11,02,24,5.20
2018,06,11,02,25,5.20
2018,06,11,02,26,5.20
2018,06,11,02,27,5.20
2018,06,11,02,28,5.20
2018,06,11,02,29,5.20
2018,06,11,02,30,5.20
2018,06,11,02,31,5.10
2018,06,11,02,32,5.10
2018,06,11,02,33,5.10
2018,06,11,02,34,5.10
2018,06,11,02,35,5.10
2018,06,11,02,36,5.10
2018,06,11,02,37,5.10
2018,06,11,02,38,5.10
2018,06,11,02,39,5.10
2018,06,11,02,40,5.00
2018,06,11,02,41,5.00
2018,06,11,02,42,5.00
2018,06,11,02,43,5.00
2018,06,11,02,44,5.00
2018,06,11,02,45,5.00
2018,06,11,02,46,4.90
2018,06,11,02,47,4.90
2018,06,11,02,48,4.90
2018,06,11,02,49,4.90
2018,06,11,02,50,4.90
2018,06,11,02,51,4.90
2018,06,11,02,52,4.90
2018,06,11,02,53,4.90
2018,06,11,02,54,4.90
2018,06,11,02,55,4.90
2018,06,11,02,56,4.90
2018,06,11,02,57,4.90
2018,06,11,02,58,4.80
2018,06,11,02,59,4.80
2018,06,11,03,00,4.80
2018,06,11,03,01,4.80
2018,06,11,03,02,4.80
2018,06,11,03,03,4.80
2018,06,11,03,04,4.80
2018,06,11,03,05,4.70
2018,06,11,03,06,4.70
2018,06,11,03,07,4.70
2018,06,11,03,08,4.70
2018,06,11,03,09,4.70
2018,06,11,03,10,4.70
2018,06,11,03,11,4.70
2018,06,11,03,12,4.70
2018,06,11,03,13,4.70
2018,06,11,03,14,4.70
2018,06,11,03,15,4.70
2018,06,11,03,16,4.70
2018,06,11,03,17,4.70
2018,06,11,03,18,4.70
2018,06,11,03,19,4.70
2018,06,11,03,20,4.70
2018,06,11,03,21,4.70
2018,06,11,03,22,4.70
2018,06,11,03,23,4.70
2018,06,11,03,24,4.70
2018,06,11,03,25,4.70
2018,06,11,03,26,4.70
2018,06,11,03,27,4.70
2018,06,11,03,28,4.70
2018,06,11,03,29,4.60
2018,06,11,03,30,4.60
2018,06,11,03,31,4.60
2018,06,11,03,32,4.60
2018,06,11,03,33,4.60
2018,06,11,03,34,4.60
2018,06,11,03,35,4.60
2018,06,11,03,36,4.60
2018,06,11,03,37,4.60
2018,06,11,03,38,4.50
2018,06,11,03,39,4.50
2018,06,11,03,40,4.50
2018,06,11,03,41,4.50
2018,06,11,03,42,4.50
2018,06,11,03,43,4.40
2018,06,11,03,44,4.40
2018,06,11,03,45,4.40
2018,06,11,03,46,4.40
2018,06,11,03,47,4.40
2018,06,11,03,48,4.40
2018,06,11,03,49,4.40
2018,06,11,03,50,4.40
2018,06,11,03,51,4.40
2018,06,11,03,52,4.40
2018,06,11,03,53,4.40
2018,06,11,03,54,4.40
2018,06,11,03,55,4.40
2018,06,11,03,56,4.40
2018,06,11,03,57,4.40
2018,06,11,03,58,4.30
2018,06,11,03,59,4.30
2018,06,11,04,00,4.30
2018,06,11,04,01,4.30
2018,06,11,04,02,4.30
2018,06,11,04,03,4.30
2018,06,11,04,04,4.30
2018,06,11,04,05,4.30
2018,06,11,04,06,4.30
2018,06,11,04,07,4.30
2018,06,11,04,08,4.30
2018,06,11,04,09,4.30
2018,06,11,04,10,4.30
2018,06,11,04,11,4.30
2018,06,11,04,12,4.30
2018,06,11,04,13,4.30
2018,06,11,04,14,4.30
2018,06,11,04,15,4.30
2018,06,11,04,16,4.30
2018,06,11,04,17,4.30
2018,06,11,04,18,4.30
2018,06,11,04,19,4.30
2018,06,11,04,20,4.20
2018,06,11,04,21,4.20
2018,06,11,04,22,4.20
2018,06,11,04,23,4.20
2018,06,11,04,24,4.20
2018,06,11,04,25,4.20
2018,06,11,04,26,4.20
2018,06,11,04,27,4.20
2018,06,11,04,28,4.20
2018,06,11,04,29,4.20
2018,06,11,04,30,4.20
2018,06,11,04,31,4.20
2018,06,11,04,32,4.20
2018,06,11,04,33,4.20
2018,06,11,04,34,4.20
2018,06,11,04,35,4.20
2018,06,11,04,36,4.10
2018,06,11,04,37,4.10
2018,06,11,04,38,4.10
2018,06,11,04,39,4.10
2018,06,11,04,40,4.10
2018,06,11,04,41,4.10
2018,06,11,04,42,4.10
2018,06,11,04,43,4.10
2018,06,11,04,44,4.10
2018,06,11,04,45,4.00
2018,06,11,04,46,4.00
2018,06,11,04,47,4.00
2018,06,11,04,48,4.00
2018,06,11,04,49,4.00
2018,06,11,04,50,4.00
2018,06,11,04,51,4.00
2018,06,11,04,52,4.00
2018,06,11,04,53,4.00
2018,06,11,04,54,4.00
2018,06,11,04,55,4.00
2018,06,11,04,56,4.00
2018,06,11,04,57,3.90
2018,06,11,04,58,3.90
2018,06,11,04,59,3.90
2018,06,11,05,00,3.90
2018,06,11,05,01,3.90
2018,06,11,05,02,3.90
2018,06,11,05,03,3.90
2018,06,11,05,04,3.90
2018,06,11,05,05,3.80
2018,06,11,05,06,3.80
2018,06,11,05,07,3.80
2018,06,11,05,08,3.80
2018,06,11,05,09,3.80
2018,06,11,05,10,3.80
2018,06,11,05,11,3.80
2018,06,11,05,12,3.80
2018,06,11,05,13,3.80
2018,06,11,05,14,3.80
2018,06,11,05,15,3.80
2018,06,11,05,16,3.80
2018,06,11,05,17,3.80
2018,06,11,05,18,3.80
2018,06,11,05,19,3.80
2018,06,11,05,20,3.80
2018,06,11,05,21,3.80
2018,06,11,05,22,3.80
2018,06,11,05,23,3.80
2018,06,11,05,24,3.80
2018,06,11,05,25,3.80
2018,06,11,05,26,3.80
2018,06,11,05,27,3.80
2018,06,11,05,28,3.80
2018,06,11,05,29,3.80
2018,06,11,05,30,3.80
2018,06,11,05,31,3.70
2018,06,11,05,32,3.70
2018,06,11,05,33,3.70
2018,06,11,05,34,3.70
2018,06,11,05,35,3.70
2018,06,11,05,36,3.70
2018,06,11,05,37,3.70
2018,06,11,05,38,3.70
2018,06,11,05,39,3.70
2018,06,11,05,40,3.70
2018,06,11,05,41,3.70
2018,06,11,05,42,3.70
2018,06,11,05,43,3.70
2018,06,11,05,44,3.70
2018,06,11,05,45,3.70
2018,06,11,05,46,3.70
2018,06,11,05,47,3.70
2018,06,11,05,48,3.70
2018,06,11,05,49,3.70
2018,06,11,05,50,3.80
2018,06,11,05,51,3.80
2018,06,11,05,52,3.80
2018,06,11,05,53,3.80
2018,06,11,05,54,3.80
2018,06,11,05,55,3.80
2018,06,11,05,56,3.80
2018,06,11,05,57,3.80
2018,06,11,05,58,3.90
2018,06,11,05,59,3.90
2018,06,11,06,00,3.90
2018,06,11,06,01,3.90
2018,06,11,06,02,3.90
2018,06,11,06,03,3.90
2018,06,11,06,04,3.90
2018,06,11,06,05,3.90
2018,06,11,06,06,4.00
2018,06,11,06,07,4.00
2018,06,11,06,08,4.00
2018,06,11,06,09,4.00
2018,06,11,06,10,4.00
2018,06,11,06,11,4.00
2018,06,11,06,12,4.00
2018,06,11,06,13,4.00
2018,06,11,06,14,4.00
2018,06,11,06,15,4.00
2018,06,11,06,16,4.00
2018,06,11,06,17,4.00
2018,06,11,06,18,3.90
2018,06,11,06,19,4.00
2018,06,11,06,20,4.00
2018,06,11,06,21,4.00
2018,06,11,06,22,4.00
2018,06,11,06,23,4.00
2018,06,11,06,24,4.00
2018,06,11,06,25,4.00
2018,06,11,06,26,4.00
2018,06,11,06,27,4.00
2018,06,11,06,28,4.00
2018,06,11,06,29,4.00
2018,06,11,06,30,4.00
2018,06,11,06,31,4.10
2018,06,11,06,32,4.10
2018,06,11,06,33,4.10
2018,06,11,06,34,4.10
2018,06,11,06,35,4.10
2018,06,11,06,36,4.20
2018,06,11,06,37,4.20
2018,06,11,06,38,4.20
2018,06,11,06,39,4.20
2018,06,11,06,40,4.20
2018,06,11,06,41,4.20
2018,06,11,06,42,4.20
2018,06,11,06,43,4.30
2018,06,11,06,44,4.30
2018,06,11,06,45,4.30
2018,06,11,06,46,4.30
2018,06,11,06,47,4.30
2018,06,11,06,48,4.30
2018,06,11,06,49,4.40
2018,06,11,06,50,4.40
2018,06,11,06,51,4.40
2018,06,11,06,52,4.40
2018,06,11,06,53,4.50
2018,06,11,06,54,4.50
2018,06,11,06,55,4.60
2018,06,11,06,56,4.60
2018,06,11,06,57,4.70
2018,06,11,06,58,4.70
2018,06,11,06,59,4.70
2018,06,11,07,00,4.80
2018,06,11,07,01,4.80
2018,06,11,07,02,4.80
2018,06,11,07,03,4.90
2018,06,11,07,04,4.90
2018,06,11,07,05,4.90
2018,06,11,07,06,5.00
2018,06,11,07,07,5.00
2018,06,11,07,08,5.10
2018,06,11,07,09,5.10
2018,06,11,07,10,5.20
2018,06,11,07,11,5.20
2018,06,11,07,12,5.30
2018,06,11,07,13,5.30
2018,06,11,07,14,5.40
2018,06,11,07,15,5.40
2018,06,11,07,16,5.50
2018,06,11,07,17,5.60
2018,06,11,07,18,5.70
2018,06,11,07,19,5.80
2018,06,11,07,20,5.90
2018,06,11,07,21,6.00
2018,06,11,07,22,6.00
2018,06,11,07,23,6.20
2018,06,11,07,24,6.30
2018,06,11,07,25,6.40
2018,06,11,07,26,6.50
2018,06,11,07,27,6.70
2018,06,11,07,28,6.80
2018,06,11,07,29,6.90
2018,06,11,07,30,7.00
2018,06,11,07,31,7.20
2018,06,11,07,32,7.30
2018,06,11,07,33,7.40
2018,06,11,07,34,7.50
2018,06,11,07,35,7.60
2018,06,11,07,36,7.70
2018,06,11,07,37,7.80
2018,06,11,07,38,7.90
2018,06,11,07,39,8.00
2018,06,11,07,40,8.10
2018,06,11,07,41,8.20
2018,06,11,07,42,8.30
2018,06,11,07,43,8.50
2018,06,11,07,44,8.60
2018,06,11,07,45,8.70
2018,06,11,07,46,8.90
2018,06,11,07,47,9.00
2018,06,11,07,48,9.10
2018,06,11,07,49,9.20
2018,06,11,07,50,9.30
2018,06,11,07,51,9.40
2018,06,11,07,52,9.50
2018,06,11,07,53,9.60
2018,06,11,07,54,9.80
2018,06,11,07,55,9.90
2018,06,11,07,56,10.00
2018,06,11,07,57,10.20
2018,06,11,07,58,10.30
2018,06,11,07,59,10.40
2018,06,11,08,00,10.60
2018,06,11,08,01,10.70
2018,06,11,08,02,10.80
2018,06,11,08,03,10.90
2018,06,11,08,04,11.00
2018,06,11,08,05,11.10
2018,06,11,08,06,11.30
2018,06,11,08,07,11.40
2018,06,11,08,08,11.50
2018,06,11,08,09,11.70
2018,06,11,08,10,11.80
2018,06,11,08,11,11.90
2018,06,11,08,12,12.00
2018,06,11,08,13,12.10
2018,06,11,08,14,12.20
2018,06,11,08,15,12.30
2018,06,11,08,16,12.40
2018,06,11,08,17,12.50
2018,06,11,08,18,12.70
2018,06,11,08,19,12.80
2018,06,11,08,20,12.90
2018,06,11,08,21,13.00
2018,06,11,08,22,13.00
2018,06,11,08,23,13.10
2018,06,11,08,24,13.20
2018,06,11,08,25,13.40
2018,06,11,08,26,13.50
2018,06,11,08,27,13.50
2018,06,11,08,28,13.60
2018,06,11,08,29,13.70
2018,06,11,08,30,13.70
2018,06,11,08,31,13.80
2018,06,11,08,32,13.80
2018,06,11,08,33,13.90
2018,06,11,08,34,13.90
2018,06,11,08,35,14.00
2018,06,11,08,36,14.10
2018,06,11,08,37,14.20
2018,06,11,08,38,14.20
2018,06,11,08,39,14.20
2018,06,11,08,40,14.20
2018,06,11,08,41,14.30
2018,06,11,08,42,14.30
2018,06,11,08,43,14.30
2018,06,11,08,44,14.30
2018,06,11,08,45,14.40
2018,06,11,08,46,14.40
2018,06,11,08,47,14.40
2018,06,11,08,48,14.40
2018,06,11,08,49,14.40
2018,06,11,08,50,14.40
2018,06,11,08,51,14.50
2018,06,11,08,52,14.60
2018,06,11,08,53,14.70
2018,06,11,08,54,14.70
2018,06,11,08,55,14.80
2018,06,11,08,56,14.80
2018,06,11,08,57,14.80
2018,06,11,08,58,14.80
2018,06,11,08,59,14.70
2018,06,11,09,00,14.70
2018,06,11,09,01,14.80
2018,06,11,09,02,14.80
2018,06,11,09,03,14.80
2018,06,11,09,04,14.80
2018,06,11,09,05,14.80
2018,06,11,09,06,14.70
2018,06,11,09,07,14.60
2018,06,11,09,08,14.50
2018,06,11,09,09,14.40
2018,06,11,09,10,14.30
2018,06,11,09,11,14.30
2018,06,11,09,12,14.30
2018,06,11,09,13,14.30
2018,06,11,09,14,14.30
2018,06,11,09,15,14.30
2018,06,11,09,16,14.30
2018,06,11,09,17,14.30
2018,06,11,09,18,14.30
2018,06,11,09,19,14.30
2018,06,11,09,20,14.40
2018,06,11,09,21,14.40
2018,06,11,09,22,14.50
2018,06,11,09,23,14.50
2018,06,11,09,24,14.50
2018,06,11,09,25,14.50
2018,06,11,09,26,14.50
2018,06,11,09,27,14.40
2018,06,11,09,28,14.40
2018,06,11,09,29,14.40
2018,06,11,09,30,14.40
2018,06,11,09,31,14.40
2018,06,11,09,32,14.40
2018,06,11,09,33,14.50
2018,06,11,09,34,14.50
2018,06,11,09,35,14.60
2018,06,11,09,36,14.60
2018,06,11,09,37,14.60
2018,06,11,09,38,14.60
2018,06,11,09,39,14.60
2018,06,11,09,40,14.60
2018,06,11,09,41,14.60
2018,06,11,09,42,14.60
2018,06,11,09,43,14.50
2018,06,11,09,44,14.50
2018,06,11,09,45,14.50
2018,06,11,09,46,14.40
2018,06,11,09,47,14.40
2018,06,11,09,48,14.40
2018,06,11,09,49,14.40
2018,06,11,09,50,14.50
2018,06,11,09,51,14.50
2018,06,11,09,52,14.50
2018,06,11,09,53,14.50
2018,06,11,09,54,14.50
2018,06,11,09,55,14.50
2018,06,11,09,56,14.50
2018,06,11,09,57,14.50
2018,06,11,09,58,14.40
2018,06,11,09,59,14.40
2018,06,11,10,00,14.40
2018,06,11,10,01,14.40
2018,06,11,10,02,14.40
2018,06,11,10,03,14.40
2018,06,11,10,04,14.50
2018,06,11,10,05,14.60
2018,06,11,10,06,14.70
2018,06,11,10,07,14.80
2018,06,11,10,08,14.90
2018,06,11,10,09,15.00
2018,06,11,10,10,15.00
2018,06,11,10,11,15.00
2018,06,11,10,12,14.90
2018,06,11,10,13,14.90
2018,06,11,10,14,14.90
2018,06,11,10,15,14.80
2018,06,11,10,16,14.80
2018,06,11,10,17,14.80
2018,06,11,10,18,14.90
2018,06,11,10,19,14.90
2018,06,11,10,20,15.00
2018,06,11,10,21,15.10
2018,06,11,10,22,15.10
2018,06,11,10,23,15.20
2018,06,11,10,24,15.30
2018,06,11,10,25,15.40
2018,06,11,10,26,15.60
2018,06,11,10,27,15.70
2018,06,11,10,28,15.80
2018,06,11,10,29,15.90
2018,06,11,10,30,16.00
2018,06,11,10,31,16.00
2018,06,11,10,32,16.10
2018,06,11,10,33,16.10
2018,06,11,10,34,16.00
2018,06,11,10,35,16.00
2018,06,11,10,36,16.00
2018,06,11,10,37,16.00
2018,06,11,10,38,16.00
2018,06,11,10,39,16.00
2018,06,11,10,40,15.90
2018,06,11,10,41,15.80
2018,06,11,10,42,15.90
2018,06,11,10,43,15.90
2018,06,11,10,44,15.90
2018,06,11,10,45,15.90
2018,06,11,10,46,16.00
2018,06,11,10,47,16.00
2018,06,11,10,48,16.20
2018,06,11,10,49,16.30
2018,06,11,10,50,16.40
2018,06,11,10,51,16.40
2018,06,11,10,52,16.40
2018,06,11,10,53,16.40
2018,06,11,10,54,16.30
2018,06,11,10,55,16.30
2018,06,11,10,56,16.30
2018,06,11,10,57,16.20
2018,06,11,10,58,16.20
2018,06,11,10,59,16.10
2018,06,11,11,00,16.00
2018,06,11,11,01,15.90
2018,06,11,11,02,15.90
2018,06,11,11,03,15.90
2018,06,11,11,04,15.90
2018,06,11,11,05,15.90
2018,06,11,11,06,15.80
2018,06,11,11,07,15.80
2018,06,11,11,08,15.70
2018,06,11,11,09,15.60
2018,06,11,11,10,15.50
2018,06,11,11,11,15.50
2018,06,11,11,12,15.40
2018,06,11,11,13,15.40
2018,06,11,11,14,15.30
2018,06,11,11,15,15.30
2018,06,11,11,16,15.20
2018,06,11,11,17,15.10
2018,06,11,11,18,15.10
2018,06,11,11,19,15.10
2018,06,11,11,20,15.10
2018,06,11,11,21,15.10
2018,06,11,11,22,15.20
2018,06,11,11,23,15.20
2018,06,11,11,24,15.30
2018,06,11,11,25,15.30
2018,06,11,11,26,15.30
2018,06,11,11,27,15.40
2018,06,11,11,28,15.40
2018,06,11,11,29,15.30
2018,06,11,11,30,15.30
2018,06,11,11,31,15.20
2018,06,11,11,32,15.20
2018,06,11,11,33,15.20
2018,06,11,11,34,15.30
2018,06,11,11,35,15.30
2018,06,11,11,36,15.40
2018,06,11,11,37,15.50
2018,06,11,11,38,15.60
2018,06,11,11,39,15.70
2018,06,11,11,40,15.80
2018,06,11,11,41,15.90
2018,06,11,11,42,16.00
2018,06,11,11,43,16.10
2018,06,11,11,44,16.20
2018,06,11,11,45,16.10
2018,06,11,11,46,16.10
2018,06,11,11,47,16.00
2018,06,11,11,48,16.00
2018,06,11,11,49,16.00
2018,06,11,11,50,15.90
2018,06,11,11,51,15.90
2018,06,11,11,52,15.90
2018,06,11,11,53,15.90
2018,06,11,11,54,15.90
2018,06,11,11,55,16.00
2018,06,11,11,56,16.10
2018,06,11,11,57,16.20
2018,06,11,11,58,16.30
2018,06,11,11,59,16.40
2018,06,11,12,00,16.50
2018,06,11,12,01,16.60
2018,06,11,12,02,16.70
2018,06,11,12,03,16.70
2018,06,11,12,04,16.80
2018,06,11,12,05,16.80
2018,06,11,12,06,16.80
2018,06,11,12,07,16.80
2018,06,11,12,08,16.90
2018,06,11,12,09,16.90
2018,06,11,12,10,16.80
2018,06,11,12,11,16.80
2018,06,11,12,12,16.80
2018,06,11,12,13,16.80
2018,06,11,12,14,16.90
2018,06,11,12,15,16.90
2018,06,11,12,16,16.90
2018,06,11,12,17,16.90
2018,06,11,12,18,16.80
2018,06,11,12,19,16.60
2018,06,11,12,20,16.50
2018,06,11,12,21,16.40
2018,06,11,12,22,16.30
2018,06,11,12,23,16.30
2018,06,11,12,24,16.30
2018,06,11,12,25,16.30
2018,06,11,12,26,16.30
2018,06,11,12,27,16.20
2018,06,11,12,28,16.10
2018,06,11,12,29,16.00
2018,06,11,12,30,16.00
2018,06,11,12,31,15.90
2018,06,11,12,32,15.90
2018,06,11,12,33,15.90
2018,06,11,12,34,16.00
2018,06,11,12,35,16.10
2018,06,11,12,36,16.20
2018,06,11,12,37,16.30
2018,06,11,12,38,16.40
2018,06,11,12,39,16.40
2018,06,11,12,40,16.40
2018,06,11,12,41,16.40
2018,06,11,12,42,16.30
2018,06,11,12,43,16.30
2018,06,11,12,44,16.20
2018,06,11,12,45,16.20
2018,06,11,12,46,16.10
2018,06,11,12,47,16.20
2018,06,11,12,48,16.20
2018,06,11,12,49,16.20
2018,06,11,12,50,16.20
2018,06,11,12,51,16.30
2018,06,11,12,52,16.40
2018,06,11,12,53,16.60
2018,06,11,12,54,16.70
2018,06,11,12,55,16.70
2018,06,11,12,56,16.70
2018,06,11,12,57,16.80
2018,06,11,12,58,16.80
2018,06,11,12,59,16.80
2018,06,11,13,00,16.80
2018,06,11,13,01,16.90
2018,06,11,13,02,16.90
2018,06,11,13,03,17.00
2018,06,11,13,04,17.10
2018,06,11,13,05,17.10
2018,06,11,13,06,17.00
2018,06,11,13,07,16.90
2018,06,11,13,08,16.80
2018,06,11,13,09,16.80
2018,06,11,13,10,16.80
2018,06,11,13,11,16.80
2018,06,11,13,12,16.80
2018,06,11,13,13,16.80
2018,06,11,13,14,16.70
2018,06,11,13,15,16.70
2018,06,11,13,16,16.60
2018,06,11,13,17,16.60
2018,06,11,13,18,16.60
2018,06,11,13,19,16.60
2018,06,11,13,20,16.50
2018,06,11,13,21,16.50
2018,06,11,13,22,16.40
2018,06,11,13,23,16.40
2018,06,11,13,24,16.40
2018,06,11,13,25,16.40
2018,06,11,13,26,16.50
2018,06,11,13,27,16.60
2018,06,11,13,28,16.60
2018,06,11,13,29,16.70
2018,06,11,13,30,16.80
2018,06,11,13,31,16.80
2018,06,11,13,32,16.90
2018,06,11,13,33,17.00
2018,06,11,13,34,17.00
2018,06,11,13,35,16.90
2018,06,11,13,36,16.80
2018,06,11,13,37,16.80
2018,06,11,13,38,16.90
2018,06,11,13,39,17.00
2018,06,11,13,40,17.20
2018,06,11,13,41,17.30
2018,06,11,13,42,17.40
2018,06,11,13,43,17.50
2018,06,11,13,44,17.50
2018,06,11,13,45,17.50
2018,06,11,13,46,17.50
2018,06,11,13,47,17.40
2018,06,11,13,48,17.40
2018,06,11,13,49,17.40
2018,06,11,13,50,17.40
2018,06,11,13,51,17.40
2018,06,11,13,52,17.30
2018,06,11,13,53,17.30
2018,06,11,13,54,17.30
2018,06,11,13,55,17.30
2018,06,11,13,56,17.30
2018,06,11,13,57,17.30
2018,06,11,13,58,17.20
2018,06,11,13,59,17.10
2018,06,11,14,00,17.00
2018,06,11,14,01,16.90
2018,06,11,14,02,16.90
2018,06,11,14,03,17.00
2018,06,11,14,04,17.10
2018,06,11,14,05,17.20
2018,06,11,14,06,17.30
2018,06,11,14,07,17.40
2018,06,11,14,08,17.40
2018,06,11,14,09,17.40
2018,06,11,14,10,17.40
2018,06,11,14,11,17.40
2018,06,11,14,12,17.40
2018,06,11,14,13,17.50
2018,06,11,14,14,17.50
2018,06,11,14,15,17.50
2018,06,11,14,16,17.40
2018,06,11,14,17,17.30
2018,06,11,14,18,17.10
2018,06,11,14,19,17.00
2018,06,11,14,20,16.90
2018,06,11,14,21,16.90
2018,06,11,14,22,16.90
2018,06,11,14,23,16.80
2018,06,11,14,24,16.80
2018,06,11,14,25,16.80
2018,06,11,14,26,16.80
2018,06,11,14,27,16.80
2018,06,11,14,28,16.80
2018,06,11,14,29,16.80
2018,06,11,14,30,16.70
2018,06,11,14,31,16.80
2018,06,11,14,32,16.80
2018,06,11,14,33,16.80
2018,06,11,14,34,16.80
2018,06,11,14,35,16.80
2018,06,11,14,36,16.80
2018,06,11,14,37,16.70
2018,06,11,14,38,16.60
2018,06,11,14,39,16.60
2018,06,11,14,40,16.60
2018,06,11,14,41,16.60
2018,06,11,14,42,16.70
2018,06,11,14,43,16.70
2018,06,11,14,44,16.70
2018,06,11,14,45,16.80
2018,06,11,14,46,16.80
2018,06,11,14,47,16.90
2018,06,11,14,48,16.90
2018,06,11,14,49,16.90
2018,06,11,14,50,16.90
2018,06,11,14,51,17.00
2018,06,11,14,52,17.00
2018,06,11,14,53,17.10
2018,06,11,14,54,17.30
2018,06,11,14,55,17.40
2018,06,11,14,56,17.50
2018,06,11,14,57,17.70
2018,06,11,14,58,17.80
2018,06,11,14,59,17.80
2018,06,11,15,00,17.80
2018,06,11,15,01,17.80
2018,06,11,15,02,17.70
2018,06,11,15,03,17.70
2018,06,11,15,04,17.60
2018,06,11,15,05,17.60
2018,06,11,15,06,17.60
2018,06,11,15,07,17.80
2018,06,11,15,08,17.80
2018,06,11,15,09,18.00
2018,06,11,15,10,18.10
2018,06,11,15,11,18.20
2018,06,11,15,12,18.40
2018,06,11,15,13,18.70
2018,06,11,15,14,18.80
2018,06,11,15,15,19.10
2018,06,11,15,16,19.20
2018,06,11,15,17,19.40
2018,06,11,15,18,19.60
2018,06,11,15,19,19.80
2018,06,11,15,20,19.90
2018,06,11,15,21,19.90
2018,06,11,15,22,19.80
2018,06,11,15,23,19.80
2018,06,11,15,24,19.70
2018,06,11,15,25,19.80
2018,06,11,15,26,19.80
2018,06,11,15,27,19.80
2018,06,11,15,28,19.70
2018,06,11,15,29,19.60
2018,06,11,15,30,19.50
2018,06,11,15,31,19.60
2018,06,11,15,32,19.70
2018,06,11,15,33,19.70
2018,06,11,15,34,19.70
2018,06,11,15,35,19.70
2018,06,11,15,36,19.70
2018,06,11,15,37,19.70
2018,06,11,15,38,19.60
2018,06,11,15,39,19.60
2018,06,11,15,40,19.50
2018,06,11,15,41,19.30
2018,06,11,15,42,19.20
2018,06,11,15,43,19.20
2018,06,11,15,44,19.20
2018,06,11,15,45,19.20
2018,06,11,15,46,19.20
2018,06,11,15,47,19.20
2018,06,11,15,48,19.40
2018,06,11,15,49,19.50
2018,06,11,15,50,19.50
2018,06,11,15,51,19.40
2018,06,11,15,52,19.20
2018,06,11,15,53,19.10
2018,06,11,15,54,19.00
2018,06,11,15,55,18.90
2018,06,11,15,56,18.90
2018,06,11,15,57,18.90
2018,06,11,15,58,18.90
2018,06,11,15,59,18.90
2018,06,11,16,00,18.80
2018,06,11,16,01,18.80
2018,06,11,16,02,18.80
2018,06,11,16,03,18.60
2018,06,11,16,04,18.60
2018,06,11,16,05,18.50
2018,06,11,16,06,18.40
2018,06,11,16,07,18.40
2018,06,11,16,08,18.40
2018,06,11,16,09,18.50
2018,06,11,16,10,18.50
2018,06,11,16,11,18.60
2018,06,11,16,12,18.70
2018,06,11,16,13,18.80
2018,06,11,16,14,18.80
2018,06,11,16,15,18.80
2018,06,11,16,16,18.90
2018,06,11,16,17,18.80
2018,06,11,16,18,18.80
2018,06,11,16,19,18.80
2018,06,11,16,20,18.90
2018,06,11,16,21,19.00
2018,06,11,16,22,19.00
2018,06,11,16,23,19.10
2018,06,11,16,24,19.10
2018,06,11,16,25,19.10
2018,06,11,16,26,19.10
2018,06,11,16,27,19.20
2018,06,11,16,28,19.20
2018,06,11,16,29,19.20
2018,06,11,16,30,19.20
2018,06,11,16,31,19.20
2018,06,11,16,32,19.20
2018,06,11,16,33,19.20
2018,06,11,16,34,19.20
2018,06,11,16,35,19.20
2018,06,11,16,36,19.10
2018,06,11,16,37,19.10
2018,06,11,16,38,19.10
2018,06,11,16,39,19.00
2018,06,11,16,40,19.00
2018,06,11,16,41,19.10
2018,06,11,16,42,19.20
2018,06,11,16,43,19.20
2018,06,11,16,44,19.20
2018,06,11,16,45,19.30
2018,06,11,16,46,19.30
2018,06,11,16,47,19.40
2018,06,11,16,48,19.40
2018,06,11,16,49,19.50
2018,06,11,16,50,19.60
2018,06,11,16,51,19.70
2018,06,11,16,52,19.70
2018,06,11,16,53,19.80
2018,06,11,16,54,19.70
2018,06,11,16,55,19.70
2018,06,11,16,56,19.60
2018,06,11,16,57,19.60
2018,06,11,16,58,19.60
2018,06,11,16,59,19.70
2018,06,11,17,00,19.70
2018,06,11,17,01,19.70
2018,06,11,17,02,19.60
2018,06,11,17,03,19.50
2018,06,11,17,04,19.40
2018,06,11,17,05,19.30
2018,06,11,17,06,19.30
2018,06,11,17,07,19.30
2018,06,11,17,08,19.30
2018,06,11,17,09,19.30
2018,06,11,17,10,19.20
2018,06,11,17,11,19.10
2018,06,11,17,12,19.00
2018,06,11,17,13,18.90
2018,06,11,17,14,18.90
2018,06,11,17,15,18.90
2018,06,11,17,16,18.90
2018,06,11,17,17,18.90
2018,06,11,17,18,18.90
2018,06,11,17,19,18.90
2018,06,11,17,20,18.90
2018,06,11,17,21,19.00
2018,06,11,17,22,19.00
2018,06,11,17,23,19.00
2018,06,11,17,24,19.10
2018,06,11,17,25,19.10
2018,06,11,17,26,19.10
2018,06,11,17,27,19.10
2018,06,11,17,28,19.10
2018,06,11,17,29,19.10
2018,06,11,17,30,19.10
2018,06,11,17,31,19.10
2018,06,11,17,32,19.10
2018,06,11,17,33,19.10
2018,06,11,17,34,19.10
2018,06,11,17,35,19.20
2018,06,11,17,36,19.20
2018,06,11,17,37,19.20
2018,06,11,17,38,19.20
2018,06,11,17,39,19.20
2018,06,11,17,40,19.20